Regional Weather Roundup
Issued by NWS

Home | Current Version | Previous Version | Text Only | Print | Product List | Glossary Off
Versions: 1 2 3 4 5 6 7 8 9 10 11 12 13 14 15 16 17 18 19 20 21 22 23 24 25 26 27 28 29 30 31 32 33 34 35 36 37 38 39 40 41 42 43 44 45 46 47 48 49 50

000
ASUS43 KIND 240159
RWRIN

WEATHER ROUNDUP FOR INDIANA
NATIONAL WEATHER SERVICE INDIANAPOLIS IN
900 PM EST THU NOV 23 2017

NOTE: "FAIR" INDICATES FEW OR NO CLOUDS BELOW 12,000 FEET WITH NO
SIGNIFICANT WEATHER AND/OR OBSTRUCTIONS TO VISIBILITY.

* - STATION DOES NOT REPORT WEATHER SUCH AS PRECIPITATION OR FOG.

+ - STATION NOT QUALITY CONTROLLED BY THE NATIONAL WEATHER SERVICE.
    USE DATA WITH CAUTION...ESPECIALLY DEWPOINT AND RELATIVE
    HUMIDITY OBSERVATIONS.

INZ001>003-010>013-019-020-240300-
NORTHWEST INDIANA

CITY           SKY/WX    TMP DP  RH WIND       PRES   REMARKS
GARY /AIRPORT/ CLEAR     39  28  65 S5        29.94F WCI  36
KNOX *+        CLEAR     34  27  75 S8        29.95F WCI  27
LA PORTE +     CLEAR     35  27  72 S3        29.94F
MICHIGAN CITY+ CLEAR     36  27  69 S3        29.94F
MONTICELLO +   CLEAR     37  23  57 S6        29.97S WCI  32
RENSSELAER +   CLEAR     34  23  64 S5        29.96F WCI  30

$$

LMZ046-743>745-240300-
SOUTHERN LAKE MICHIGAN

STATION/POSITION TIME  TEMP    WIND        PRES    WAVE
                       AIR SEA DIR/SP/G            HT
                 (UTC) (F)     (DEG/KT/KT) (MB)    (FT)
BURNS HARBOR     0140   40     190/  6/  9 1014.2F
MICHIGAN CITY    0130   41     170/ 10/ 11   N/A

$$

INZ004-005-014>016-021>024-240300-
NORTH CENTRAL INDIANA

CITY           SKY/WX    TMP DP  RH WIND       PRES   REMARKS
GOSHEN         CLEAR     34  23  64 S7        29.96F WCI  28
PERU/GRISSOM   CLEAR     32  24  71 S7        29.98S WCI  26
SOUTH BEND     CLEAR     34  25  69 S7        29.95F WCI  28
WARSAW +       CLEAR     32  27  80 CALM      29.97S

$$

INZ006>009-017-018-025>027-240300-
NORTHEAST INDIANA

CITY           SKY/WX    TMP DP  RH WIND       PRES   REMARKS
AUBURN +       CLEAR     32  23  69 CALM      29.99S
FORT WAYNE     CLEAR     33  25  72 S6        30.00R WCI  28
KENDALLVILLE + CLEAR     32  24  73 S6        29.97S WCI  26

$$

INZ028-029-035-036-043>045-051>053-240300-
WEST CENTRAL INDIANA

CITY           SKY/WX    TMP DP  RH WIND       PRES   REMARKS
CRAWFORDSVL +  CLEAR     31  24  76 S7          N/A  WCI  24
GREENCASTLE +  CLOUDY    32  21  64 CALM      30.01F
LAFAYETTE      CLEAR     36  25  64 S6        29.98F WCI  31
TERRE HAUTE    CLEAR     30  23  75 CALM      30.02S

$$

INZ030>032-037>040-046>048-054>057-064-065-240300-
CENTRAL INDIANA

CITY           SKY/WX    TMP DP  RH WIND       PRES   REMARKS
FRANKFORT +    CLEAR     36  26  67 SW5       30.01S WCI  32
GREENWOOD *+   CLEAR     32  26  78 CALM      30.03R
INDIANAPOLIS   CLEAR     36  21  54 SW6       30.02R WCI  31
-EAGLE CREEK   CLEAR     35  21  56 CALM      30.01R
KOKOMO +       CLEAR     33  23  66 SW6       30.01R WCI  28
MT COMFORT *+  CLEAR     30  27  86 S3        30.01S
SHELBYVILLE    CLEAR     35  24  64 SW3       30.02R

$$

INZ033-034-041-042-049-050-058-059-240300-
EAST CENTRAL INDIANA

CITY           SKY/WX    TMP DP  RH WIND       PRES   REMARKS
MUNCIE         CLEAR     37  24  59 SW6       30.01R WCI  32
RICHMOND +     CLEAR     32  27  80 SW8       30.01R WCI  25

$$

INZ060-061-067>069-081>083-085>088-240300-
SOUTHWEST INDIANA

CITY           SKY/WX    TMP DP  RH WIND       PRES   REMARKS
EVANSVILLE     CLEAR     36  27  69 CALM      30.04R
HUNTINGBURG +  CLEAR     37  25  61 CALM      30.04R

$$

INZ062-063-066-070>080-084-089>092-240300-
SOUTH CENTRAL AND SOUTHEAST INDIANA

CITY           SKY/WX    TMP DP  RH WIND       PRES   REMARKS
BLOOMINGTON    CLEAR     33  21  61 CALM      30.03R
MADISON *+     CLEAR     32  25  74 CALM      30.05R

$$





USA.gov is the U.S. government's official web portal to all federal, state and local government web resources and services.